GW2334 Weather Reports


time (UTC)temp
C
wind
direction
speed
KPH
gust
KPH
rain 1hr
cm
rain 24hr
cm
rain mn
cm
humidity
%
barometer
mb
20260506193641 21 324 6.4 11.3 0.00 0.00 0.00 61 1020.7
20260506193138 21 324 6.4 11.3 0.00 0.00 0.00 61 1020.9
20260506192634 21 324 6.4 11.3 0.00 0.00 0.00 61 1020.7
20260506192130 21 324 6.4 11.3 0.00 0.00 0.00 61 1021.0
20260506191628 21 324 6.4 11.3 0.00 0.00 0.00 61 1020.8
20260506191123 21 324 6.4 11.3 0.00 0.00 0.00 61 1020.8
20260506190621 21 325 4.8 9.7 0.00 0.00 0.00 59 1020.8
20260506190118 21 325 4.8 9.7 0.00 0.00 0.00 59 1020.8
20260506185615 21 313 11.3 12.9 0.00 0.00 0.00 62 1020.7
20260506185111 21 13 8.0 9.7 0.00 0.00 0.00 63 1021.0
20260506184609 21 323 3.2 8.0 0.00 0.00 0.00 65 1020.9
20260506184106 21 325 8.0 11.3 0.00 0.00 0.00 66 1021.0
20260506183603 21 325 8.0 11.3 0.00 0.00 0.00 66 1020.9
20260506183058 21 325 8.0 11.3 0.00 0.00 0.00 66 1021.2
20260506182556 20 318 4.8 11.3 0.00 0.00 0.00 64 1021.1
20260506182053 20 318 4.8 11.3 0.00 0.00 0.00 64 1021.2
20260506181551 20 343 4.8 4.8 0.00 0.00 0.00 66 1021.2
20260506181047 20 342 6.4 14.5 0.00 0.00 0.00 66 1021.1
20260506180544 20 9 3.2 6.4 0.00 0.00 0.00 67 1021.2
20260506180041 20 333 3.2 6.4 0.00 0.00 0.00 68 1021.2
20260506175537 20 317 1.6 6.4 0.00 0.00 0.00 66 1021.2
20260506175033 18 241 4.8 8.0 0.00 0.00 0.00 71 1021.0
20260506174532 18 241 4.8 8.0 0.00 0.00 0.00 71 1021.1
20260506174022 18 241 4.8 8.0 0.00 0.00 0.00 71 1021.1
20260506173520 18 241 4.8 8.0 0.00 0.00 0.00 71 1021.2
20260506173017 18 241 4.8 8.0 0.00 0.00 0.00 71 1021.4
20260506172514 18 241 4.8 8.0 0.00 0.00 0.00 71 1021.2
20260506172010 18 241 4.8 8.0 0.00 0.00 0.00 71 1021.2
20260506171507 18 356 3.2 4.8 0.00 0.00 0.00 70 1021.3
20260506171004 18 288 3.2 4.8 0.00 0.00 0.00 70 1021.4
20260506170501 18 288 3.2 4.8 0.00 0.00 0.00 70 1021.2
20260506165954 17 335 3.2 4.8 0.00 0.00 0.00 71 1021.1
20260506165453 17 157 3.2 3.2 0.00 0.00 0.00 75 1021.2
20260506164948 17 157 3.2 3.2 0.00 0.00 0.00 75 1021.2
20260506164445 17 157 3.2 3.2 0.00 0.00 0.00 75 1021.2
20260506163943 17 157 3.2 3.2 0.00 0.00 0.00 75 1021.2
20260506163438 17 157 3.2 3.2 0.00 0.00 0.00 75 1021.3
20260506162932 17 157 3.2 3.2 0.00 0.00 0.00 75 1021.2
20260506162430 17 157 3.2 3.2 0.00 0.00 0.00 75 1021.2
20260506161927 17 157 3.2 3.2 0.00 0.00 0.00 75 1021.3
20260506161425 17 157 3.2 3.2 0.00 0.00 0.00 75 1021.2
20260506160917 15 169 4.8 9.7 0.00 0.00 0.00 78 1021.2
20260506160414 15 169 4.8 9.7 0.00 0.00 0.00 78 1021.4
20260506155912 15 169 4.8 9.7 0.00 0.00 0.00 78 1021.4
20260506155409 15 169 4.8 9.7 0.00 0.00 0.00 78 1021.4
20260506153531 15 169 4.8 11.3 0.00 0.00 0.00 78 1021.2
20260506153028 15 166 6.4 8.0 0.00 0.00 0.00 79 1021.3
20260506152525 15 161 6.4 9.7 0.00 0.00 0.00 79 1021.5
20260506152023 15 153 8.0 9.7 0.00 0.00 0.00 80 1021.3
20260506151521 15 183 1.6 4.8 0.00 0.00 0.00 80 1021.4
20260506151018 -17 0.0 0.0 0.00 0.00 0.00 1021.2
20260506150514 -17 0.0 0.0 0.00 0.00 0.00 1021.3
20260506150011 13 124 0.0 0.0 0.00 0.00 0.00 90 1021.2
20260506145508 13 124 0.0 0.0 0.00 0.00 0.00 90 1021.2
20260506145005 13 124 0.0 0.0 0.00 0.00 0.00 90 1021.2
20260506144502 13 124 0.0 0.0 0.00 0.00 0.00 90 1021.2
20260506143959 13 124 0.0 0.0 0.00 0.00 0.00 90 1021.2
20260506143456 13 124 0.0 0.0 0.00 0.00 0.00 90 1021.2
20260506142955 13 124 0.0 0.0 0.00 0.00 0.00 90 1021.2
20260506142452 13 124 0.0 0.0 0.00 0.00 0.00 90 1021.2
20260506141950 13 124 0.0 0.0 0.00 0.00 0.00 90 1021.1
20260506141448 13 124 0.0 0.0 0.00 0.00 0.00 90 1020.9
20260506140946 13 124 0.0 0.0 0.00 0.00 0.00 90 1020.8
20260506140443 13 124 0.0 0.0 0.00 0.00 0.00 90 1020.8
20260506135939 -17 0.0 0.0 0.00 0.00 0.00 1020.9
20260506135437 -17 0.0 0.0 0.00 0.00 0.00 1020.7
20260506134933 -17 0.0 0.0 0.00 0.00 0.00 1020.7
20260506134429 -17 0.0 0.0 0.00 0.00 0.00 1020.6
20260506133926 -17 0.0 0.0 0.00 0.00 0.00 1020.6
20260506133423 -17 0.0 0.0 0.00 0.00 0.00 1020.7
20260506132920 -17 0.0 0.0 0.00 0.00 0.00 1020.4
20260506132417 -17 0.0 0.0 0.00 0.00 0.00 1020.6
20260506131914 -17 0.0 0.0 0.00 0.00 0.00 1020.5
20260506131411 -17 0.0 0.0 0.00 0.00 0.00 1020.3
20260506130908 -17 0.0 0.0 0.00 0.00 0.00 1020.5
20260506130404 -17 0.0 0.0 0.00 0.00 0.00 1020.4
20260506125902 -17 0.0 0.0 0.00 0.00 0.00 1020.4
20260506125400 -17 0.0 0.0 0.00 0.00 0.00 1020.4
20260506124858 -17 0.0 0.0 0.00 0.00 0.00 1020.4
20260506124355 -17 0.0 0.0 0.00 0.00 0.00 1020.3
20260506123853 -17 0.0 0.0 0.00 0.00 0.00 1020.4
20260506123351 -17 0.0 0.0 0.00 0.00 0.00 1020.2
20260506122848 -17 0.0 0.0 0.00 0.00 0.00 1020.2
20260506122345 -17 0.0 0.0 0.00 0.00 0.00 1020.2
20260506121843 -17 0.0 0.0 0.00 0.00 0.00 1020.3
20260506121340 -17 0.0 0.0 0.00 0.00 0.00 1020.2
20260506120837 -17 0.0 0.0 0.00 0.00 0.00 1020.3
20260506120334 -17 0.0 0.0 0.00 0.00 0.00 1020.1
20260506115831 -17 0.0 0.0 0.00 0.00 0.00 1020.2
20260506115330 -17 0.0 0.0 0.00 0.00 0.00 1020.1
20260506114828 -17 0.0 0.0 0.00 0.00 0.00 1020.0
20260506114325 -17 0.0 0.0 0.00 0.00 0.00 1020.0
20260506113824 -17 0.0 0.0 0.00 0.00 0.00 1020.2
20260506113321 -17 0.0 0.0 0.00 0.00 0.00 1020.0
20260506112817 -17 0.0 0.0 0.00 0.00 0.00 1020.1
20260506112314 -17 0.0 0.0 0.00 0.00 0.00 1019.9
20260506111812 -17 0.0 0.0 0.00 0.00 0.00 1019.9
20260506111310 -17 0.0 0.0 0.00 0.00 0.00 1019.7
20260506110807 -17 0.0 0.0 0.00 0.00 0.00 1019.7
20260506110304 -17 0.0 0.0 0.00 0.00 0.00 1019.7
20260506105800 -17 0.0 0.0 0.00 0.00 0.00 1019.8
20260506105257 -17 0.0 0.0 0.00 0.00 0.00 1019.6
20260506104755 -17 0.0 0.0 0.00 0.00 0.00 1019.7
20260506104253 -17 0.0 0.0 0.00 0.00 0.00 1019.5
20260506103750 -17 0.0 0.0 0.00 0.00 0.00 1019.7
20260506103247 -17 0.0 0.0 0.00 0.00 0.00 1019.4
20260506102745 -17 0.0 0.0 0.00 0.00 0.00 1019.6
20260506102243 -17 0.0 0.0 0.00 0.00 0.00 1019.6
20260506101739 -17 0.0 0.0 0.00 0.00 0.00 1019.5
20260506101235 -17 0.0 0.0 0.00 0.00 0.00 1019.5
20260506100734 -17 0.0 0.0 0.00 0.00 0.00 1019.4
20260506100232 12 310 0.0 3.2 0.00 0.00 0.00 89 1019.5
20260506095730 12 310 0.0 3.2 0.00 0.00 0.00 89 1019.5
20260506095226 12 310 0.0 3.2 0.00 0.00 0.00 89 1019.4
20260506094723 12 310 0.0 3.2 0.00 0.00 0.00 89 1019.2
20260506094221 12 310 0.0 3.2 0.00 0.00 0.00 89 1019.4
20260506093720 12 310 0.0 3.2 0.00 0.00 0.00 89 1019.6
20260506093216 12 310 0.0 3.2 0.00 0.00 0.00 89 1019.5
20260506092714 12 310 0.0 3.2 0.00 0.00 0.00 89 1019.3
20260506092212 12 310 0.0 3.2 0.00 0.00 0.00 89 1019.3
20260506091709 12 310 0.0 3.2 0.00 0.00 0.00 89 1019.4
20260506091206 12 310 0.0 3.2 0.00 0.00 0.00 89 1019.5
20260506090704 12 310 0.0 3.2 0.00 0.00 0.00 89 1019.4
20260506090200 -17 0.0 0.0 0.00 0.00 0.00 1019.4
20260506085658 -17 0.0 0.0 0.00 0.00 0.00 1019.5
20260506085153 -17 0.0 0.0 0.00 0.00 0.00 1019.3
20260506084650 -17 0.0 0.0 0.00 0.00 0.00 1019.7
20260506084147 -17 0.0 0.0 0.00 0.00 0.00 1019.4
20260506083644 -17 0.0 0.0 0.00 0.00 0.00 1019.5
20260506083142 12 269 0.0 3.2 0.00 0.00 0.00 92 1019.5
20260506082638 12 269 0.0 3.2 0.00 0.00 0.00 92 1019.5
20260506082134 12 269 0.0 3.2 0.00 0.00 0.00 92 1019.6
20260506081632 12 269 0.0 3.2 0.00 0.00 0.00 92 1019.6
20260506081129 12 269 0.0 3.2 0.00 0.00 0.00 92 1019.4
20260506080627 12 269 0.0 3.2 0.00 0.00 0.00 92 1019.5
20260506080123 12 269 0.0 3.2 0.00 0.00 0.00 92 1019.4
20260506073108 -17 0.0 0.0 0.00 0.00 0.00 1019.2
20260506072604 -17 0.0 0.0 0.00 0.00 0.00 1019.0
20260506072102 -17 0.0 0.0 0.00 0.00 0.00 1019.0
20260506071559 -17 0.0 0.0 0.00 0.00 0.00 1018.7
20260506071057 -17 0.0 0.0 0.00 0.00 0.00 1019.0
20260506070554 -17 0.0 0.0 0.00 0.00 0.00 1019.1
20260506062028 13 224 0.0 3.2 0.00 0.23 0.23 87 1018.5
20260506061523 13 224 0.0 3.2 0.00 0.23 0.23 87 1018.5
20260506061021 13 224 0.0 3.2 0.00 0.23 0.23 87 1018.5
20260506060520 13 224 0.0 3.2 0.00 0.23 0.23 87 1018.5
20260506050948 13 296 4.8 4.8 0.00 0.23 0.23 87 1018.1
20260506050446 13 296 4.8 4.8 0.00 0.23 0.23 87 1018.0
20260506044936 15 222 3.2 4.8 0.00 0.23 0.23 78 1017.9
20260506044435 15 222 3.2 4.8 0.00 0.23 0.23 78 1017.8
20260506043931 15 222 3.2 4.8 0.00 0.23 0.23 78 1017.7
20260506043428 15 222 3.2 4.8 0.00 0.23 0.23 78 1017.6
20260506042926 15 222 3.2 4.8 0.00 0.23 0.23 78 1017.5
20260506042426 15 222 3.2 4.8 0.00 0.23 0.23 78 1017.5
20260506041923 15 222 3.2 4.8 0.00 0.23 0.23 78 1017.3
20260506041421 15 222 3.2 4.8 0.00 0.23 0.23 78 1017.4
20260506040918 15 222 3.2 4.8 0.00 0.23 0.23 78 1017.2
20260506040415 15 222 3.2 4.8 0.00 0.23 0.23 78 1017.2
20260506035911 15 222 3.2 4.8 0.00 0.23 0.23 78 1017.2
20260506035409 15 222 3.2 4.8 0.00 0.23 0.23 78 1017.2
20260506034905 16 225 4.8 8.0 0.00 0.23 0.23 76 1017.1
20260506034403 16 225 4.8 8.0 0.00 0.23 0.23 76 1016.9
20260506033859 16 225 4.8 8.0 0.00 0.23 0.23 76 1016.9
20260506033357 16 198 4.8 8.0 0.00 0.23 0.23 76 1016.8
20260506032853 16 217 0.0 4.8 0.00 0.23 0.23 76 1016.7
20260506032350 16 211 3.2 6.4 0.00 0.23 0.23 76 1016.6
20260506031847 16 206 4.8 11.3 0.00 0.23 0.23 75 1016.7
20260506031344 16 210 4.8 12.9 0.00 0.23 0.23 75 1016.6
20260506030842 16 198 1.6 8.0 0.00 0.23 0.23 76 1016.6
20260506030340 16 215 4.8 11.3 0.00 0.23 0.23 75 1016.5
20260506025836 16 219 8.0 12.9 0.00 0.23 0.23 75 1016.6
20260506025332 16 216 4.8 9.7 0.00 0.23 0.23 77 1016.6
20260506024830 16 235 3.2 4.8 0.00 0.23 0.23 76 1016.4
20260506024327 16 192 4.8 9.7 0.00 0.23 0.23 75 1016.4
20260506023823 16 195 4.8 9.7 0.00 0.23 0.23 75 1016.2
20260506023320 16 180 3.2 14.5 0.00 0.23 0.23 75 1016.2
20260506022816 17 170 4.8 6.4 0.00 0.23 0.23 75 1016.3
20260506022314 17 201 1.6 4.8 0.00 0.23 0.23 76 1016.1
20260506021813 17 121 3.2 6.4 0.00 0.23 0.23 75 1016.0
20260506021309 17 150 3.2 6.4 0.00 0.23 0.23 75 1016.1
20260506020806 17 145 3.2 6.4 0.00 0.23 0.23 74 1016.0
20260506020303 17 121 3.2 6.4 0.00 0.23 0.23 74 1016.1
20260506015801 17 117 3.2 4.8 0.00 0.23 0.23 74 1016.1
20260506015258 17 136 3.2 8.0 0.00 0.23 0.23 74 1016.0
20260506014755 17 108 3.2 6.4 0.00 0.23 0.23 73 1016.0
20260506014252 17 141 3.2 4.8 0.00 0.23 0.23 73 1016.1
20260506013749 17 204 6.4 9.7 0.00 0.23 0.23 71 1016.0
20260506013246 17 204 6.4 9.7 0.00 0.23 0.23 71 1016.0
20260506012742 17 204 6.4 9.7 0.00 0.23 0.23 71 1016.0
20260506012239 17 204 6.4 9.7 0.00 0.23 0.23 71 1015.9
20260506011737 17 204 6.4 9.7 0.00 0.23 0.23 71 1016.0
20260506011233 17 204 6.4 9.7 0.00 0.23 0.23 71 1015.9
20260506010731 17 204 6.4 9.7 0.00 0.23 0.23 71 1016.0
20260506010228 17 185 3.2 4.8 0.00 0.23 0.23 74 1015.8
20260506005725 17 185 3.2 4.8 0.00 0.23 0.23 74 1015.9
20260506005222 17 185 3.2 4.8 0.00 0.23 0.23 74 1015.9
20260506004718 17 185 3.2 4.8 0.00 0.23 0.23 74 1015.9
20260506004216 17 185 3.2 4.8 0.00 0.23 0.23 74 1015.9
20260506003711 17 185 3.2 4.8 0.00 0.23 0.23 74 1015.8
20260506003208 17 185 3.2 8.0 0.00 0.23 0.23 74 1015.7
20260506002704 17 212 3.2 9.7 0.00 0.23 0.23 74 1015.8
20260506002200 17 166 8.0 9.7 0.00 0.23 0.23 74 1016.0
20260506001656 17 180 3.2 6.4 0.00 0.23 0.23 74 1015.8
20260506001154 17 173 6.4 6.4 0.00 0.23 0.23 73 1015.6
20260506000650 17 173 6.4 6.4 0.00 0.23 0.23 73 1015.6
20260506000148 17 173 6.4 6.4 0.00 0.23 0.23 73 1015.7
20260505235646 17 173 6.4 6.4 0.00 0.23 0.23 73 1015.7
20260505235143 -17 0.0 0.0 0.00 0.23 0.23 1015.9
20260505234640 -17 0.0 0.0 0.00 0.23 0.23 1015.7
20260505234137 -17 0.0 0.0 0.00 0.23 0.23 1015.4
20260505233634 -17 0.0 0.0 0.00 0.23 0.23 1015.6
20260505233131 -17 0.0 0.0 0.00 0.23 0.23 1015.7
20260505232629 -17 0.0 0.0 0.00 0.23 0.23 1015.5
20260505232126 -17 0.0 0.0 0.00 0.23 0.23 1015.7
20260505231623 -17 0.0 0.0 0.00 0.23 0.23 1015.7
20260505231122 -17 0.0 0.0 0.00 0.23 0.23 1015.8
20260505230619 -17 0.0 0.0 0.00 0.23 0.23 1015.8
20260505230115 -17 0.0 0.0 0.00 0.23 0.23 1015.8
20260505225612 -17 0.0 0.0 0.00 0.23 0.23 1015.8
20260505225108 -17 0.0 0.0 0.00 0.23 0.23 1015.8
20260505224605 -17 0.0 0.0 0.00 0.23 0.23 1016.0
20260505224102 -17 0.0 0.0 0.00 0.23 0.23 1015.9
20260505223559 -17 0.0 0.0 0.00 0.23 0.23 1015.8
20260505223055 -17 0.0 0.0 0.00 0.23 0.23 1015.9
20260505222552 -17 0.0 0.0 0.00 0.23 0.23 1015.9
20260505222048 -17 0.0 0.0 0.00 0.23 0.23 1015.9
20260505221545 -17 0.0 0.0 0.00 0.23 0.23 1015.9
20260505221041 -17 0.0 0.0 0.00 0.23 0.23 1016.0
20260505220539 -17 0.0 0.0 0.00 0.23 0.23 1016.1
20260505220037 -17 0.0 0.0 0.00 0.23 0.23 1016.0
20260505215535 -17 0.0 0.0 0.00 0.23 0.23 1016.0
20260505215032 -17 0.0 0.0 0.00 0.23 0.23 1015.9
20260505214530 -17 0.0 0.0 0.00 0.23 0.23 1016.0
20260505214027 -17 0.0 0.0 0.00 0.23 0.23 1016.0
20260505213525 -17 0.0 0.0 0.00 0.23 0.23 1016.2
20260505213021 -17 0.0 0.0 0.00 0.23 0.23 1016.2
20260505212517 -17 0.0 0.0 0.00 0.23 0.23 1016.1
20260505212014 -17 0.0 0.0 0.00 0.23 0.23 1016.2
20260505211511 -17 0.0 0.0 0.00 0.23 0.23 1016.2
20260505211008 -17 0.0 0.0 0.00 0.23 0.23 1016.2
20260505210505 -17 0.0 0.0 0.00 0.23 0.23 1016.3
20260505210001 -17 0.0 0.0 0.00 0.23 0.23 1016.2
20260505205500 -17 0.0 0.0 0.00 0.23 0.23 1016.3
20260505204956 -17 0.0 0.0 0.00 0.23 0.23 1016.3
20260505204454 -17 0.0 0.0 0.00 0.23 0.23 1016.2
20260505203951 -17 0.0 0.0 0.00 0.23 0.23 1016.4
20260505203448 -17 0.0 0.0 0.00 0.23 0.23 1016.4
20260505202944 17 239 14.5 17.7 0.00 0.23 0.23 76 1016.6
20260505202441 17 239 14.5 17.7 0.00 0.23 0.23 76 1016.7
20260505201937 17 239 14.5 17.7 0.00 0.23 0.23 76 1016.5
20260505201434 17 239 14.5 17.7 0.00 0.23 0.23 76 1016.6
20260505200932 17 239 14.5 17.7 0.00 0.23 0.23 76 1016.6
20260505200429 17 239 14.5 17.7 0.00 0.23 0.23 76 1016.5
20260505195925 17 239 14.5 17.7 0.00 0.23 0.23 76 1016.7
20260505195422 17 239 14.5 17.7 0.00 0.23 0.23 76 1016.5
20260505194920 17 239 14.5 17.7 0.00 0.23 0.23 76 1016.4
20260505194417 17 239 14.5 17.7 0.00 0.23 0.23 76 1016.6
20260505193917 17 239 14.5 17.7 0.00 0.23 0.23 76 1016.5